Seretse Khama Intl Arpt, Botswana

7:49 PM CAT on February 26, 2017 (GMT +0200)
Sir Seretse Khama International

Weather History for FBSK - July, 2013

Change the Weather History Date:

Sunday, July 21, 2013

  Actual Average Record
Temperature  
Mean Temperature 54 °F -  
Max Temperature 71 °F 74 °F 80 °F (1998)
Min Temperature 37 °F 43 °F 24 °F (2000)
Degree Days  
Heating Degree Days 11    
Growing Degree Days 4 (Base 50)    
Moisture  
Dew Point 23 °F    
Average Humidity 31    
Maximum Humidity 65    
Minimum Humidity 12    
Precipitation  
Precipitation 0.00 in - - ()
Sea Level Pressure  
Sea Level Pressure 30.34 in    
Wind  
Wind Speed 5 mph ()    
Max Wind Speed 12 mph    
Max Gust Speed -    
Averages and records for this station are not official NWS values.
T = Trace of Precipitation, MM = Missing Value Source: Averaged Metar Reports

Daily Weather History Graph

Daily Weather History Graph

Search for Another Location

Airport or City:

Trip Planner

Search our weather history database for the weather conditions in past years. The results will help you decide how hot, cold, wet, or windy it might be!

Date:

Astronomy

Jul. 21, 2013 Rise Set
Actual Time 6:57 AM CAT 5:47 PM CAT
Civil Twilight 6:33 AM CAT 6:12 PM CAT
Nautical Twilight 6:05 AM CAT 6:39 PM CAT
Astronomical Twilight 5:38 AM CAT 7:07 PM CAT
Moon 4:36 PM CAT (7/21) 5:19 AM CAT (7/21)
Length of Visible Light 11h 38m
Length of Day
10h 49m
Waxing Gibbous, 97% of the Moon is Illuminated
Jul 21
Waxing Gibbous
Jul 22
Full
Jul 29
Last Quarter
Aug 6
New
Aug 14
First Quarter

Hourly Weather History & Observations

Time (CAT) Temp. Windchill Dew Point Humidity Pressure Visibility Wind Dir Wind Speed Gust Speed Precip Events Conditions
12:00 AM 51.8 °F - 17.6 °F 26% 30.33 in - SSW 4.6 mph - N/A   Clear
1:00 AM 50.0 °F - 21.2 °F 32% 30.33 in - South 5.8 mph - N/A   Clear
2:00 AM 48.2 °F - 23.0 °F 37% 30.33 in - South 8.1 mph - N/A   Clear
3:00 AM 46.4 °F 43.5 °F 24.8 °F 43% 30.33 in - SSW 5.8 mph - N/A   Clear
4:00 AM 41.0 °F 38.0 °F 24.8 °F 53% 30.33 in - SSW 4.6 mph - N/A   Clear
5:00 AM 42.8 °F 40.1 °F 26.6 °F 53% 30.33 in - SSW 4.6 mph - N/A   Clear
6:00 AM 37.4 °F - 26.6 °F 65% 30.36 in - SSW 2.3 mph - N/A   Clear
8:00 AM 46.4 °F 45.2 °F 30.2 °F 53% 30.39 in - SSW 3.5 mph - N/A   Clear
9:00 AM 53.6 °F - 30.2 °F 41% 30.39 in - ESE 3.5 mph - N/A   Clear
10:00 AM 57.2 °F - 30.2 °F 36% 30.42 in - ESE 9.2 mph - N/A   Clear
11:00 AM 60.8 °F - 28.4 °F 29% 30.42 in - East 11.5 mph - N/A   Clear
12:00 PM 64.4 °F - 26.6 °F 24% 30.39 in - ESE 11.5 mph - N/A   Clear
1:00 PM 68.0 °F - 23.0 °F 18% 30.36 in - ESE 9.2 mph - N/A   Clear
2:00 PM 69.8 °F - 21.2 °F 16% 30.33 in - SE 10.4 mph - N/A   Clear
3:00 PM 69.8 °F - 19.4 °F 15% 30.30 in - SE 9.2 mph - N/A   Clear
4:00 PM 71.6 °F - 15.8 °F 12% 30.27 in - SSW 6.9 mph - N/A   Clear
5:00 PM 71.6 °F - 17.6 °F 13% 30.27 in - East 9.2 mph - N/A   Clear
6:00 PM 64.4 °F - 17.6 °F 16% 30.30 in - SE 6.9 mph - N/A   Clear
7:00 PM 59.0 °F - 19.4 °F 22% 30.30 in - SE 4.6 mph - N/A   Clear
8:00 PM 55.4 °F - 17.6 °F 23% 30.33 in - SE 8.1 mph - N/A   Clear
9:00 PM 51.8 °F - 17.6 °F 26% 30.36 in - Variable 2.3 mph - N/A   Clear
10:00 PM 50.0 °F - 19.4 °F 30% 30.36 in - ESE 2.3 mph - N/A   Clear
11:00 PM 48.2 °F - 19.4 °F 32% 30.36 in - Variable 4.6 mph - N/A   Clear